Tracking 19638 objects as of 19-May-2019
HD Live streaming from Space Station
objects crossing your sky now

ECHOSTAR 7

Track ECHOSTAR 7 now!
ECHOSTAR 7 is classified as:


NORAD ID: 27378
Int'l Code: 2002-006A
Perigee: 35,785.2 km
Apogee: 35,803.0 km
Inclination: 0.0 °
Period: 1,436.1 minutes
Semi major axis: 42165 km
RCS: 17.7827 m2 (large)
Launch date: February 21, 2002
Source: United States (US)
Launch site: AIR FORCE EASTERN TEST RANGE (AFETR)

CONUS, Hawaii, Alaska and Puerto Rico; 32 Ku-band transponders
aabbcc
Your satellite tracking list
Your tracking list is empty




NASA's NSSDC Master Catalog

Two Line Element Set (TLE):
1 27378U 02006A   19138.16287799 -.00000012  00000-0  00000+0 0  9999
2 27378   0.0102 311.7227 0002117  71.8686 151.7877  1.00270488 63120
Source of the keplerian elements: AFSPC